Location: ??????????
(54.8537°N, 38.8755°E)
Time: 15:37:39
(UTC+00:00)

Vanguard 3 - Pass Details

Date: 15 September 2024
Orbit: 507 x 3223 km, 33.3° (Epoch: 11 October)

Event Time Altitude Azimuth Distance (km) Brightness Sun altitude
Rises 01:46:55 0° 180° (S) 6,778 11.6 -10.7°
Reaches altitude 10° 01:55:23 10° 158° (SSE) 6,072 11.6 -9.5°
Maximum altitude 02:02:37 13° 136° (SE) 5,858 11.9 -8.5°
Drops below altitude 10° 02:09:46 10° 113° (ESE) 6,055 12.4 -7.6°
Sets 02:18:02 0° 92° (E) 6,751 13.6 -6.4°
